Regional Weather Roundup
Issued by NWS

Home | Current Version | Previous Version | Graphics & Text | Print | Product List | Glossary On
Versions: 1 2 3 4 5 6 7 8 9 10 11 12 13 14 15 16 17 18 19 20 21 22 23 24 25 26 27 28 29 30 31 32 33 34 35 36 37 38 39 40 41 42 43 44 45 46 47 48 49 50
000
ASUS43 KLSX 181107
RWRMO

WEATHER SUMMARY FOR MISSOURI
NATIONAL WEATHER SERVICE SPRINGFIELD MO
600 AM CDT THU SEP 18 2014

NOTE: "FAIR" INDICATES FEW OR NO CLOUDS BELOW 12,000 FEET WITH NO
       SIGNIFICANT WEATHER AND/OR OBSTRUCTIONS TO VISIBILITY.
       CURRENT SKY AND/OR WEATHER CONDITIONS ARE NOT AVAILABLE FOR
       CHILLICOTHE AND FARMINGTON.

MOZ001>031-035>038-043-044-053-054-181200-
...NORTHERN AND WESTERN MISSOURI...

CITY           SKY/WX    TMP DP  RH WIND       PRES   REMARKS
KANSAS CTY INT FOG       61  60  97 E9        29.98S VSB 1/2
KANSAS C DTWN  CLOUDY    64  61  90 E8        29.98R
LEE`S SUMMIT   CLOUDY    61  60  97 E8        29.99R
ST JOSEPH      MOCLDY    60  58  92 E6        29.99F
CHILLICOTHE      N/A     59  57  93 E5        30.03S
KIRKSVILLE     FOG       54  53  97 NE5       30.04R VSB 1/4

$$
MOZ066>068-077>081-088>096-101>105-181200-
...SOUTHWEST MISSOURI...

CITY           SKY/WX    TMP DP  RH WIND       PRES   REMARKS
SPRINGFIELD    CLOUDY    64  63  96 CALM      29.97R
JOPLIN         TSTM      63  62  97 SW8       30.00S

$$
MOZ032>034-039>042-045>050-055>058-069>072-181200-
...CENTRAL MISSOURI...

CITY           SKY/WX    TMP DP  RH WIND       PRES   REMARKS
COLUMBIA       FOG       59  59 100 E7          N/A  VSB 3/4
JEFFERSON CITY CLOUDY    61  59  93 E7        29.99R FOG
ROLLA          FOG       59  58  96 E7        29.98R VSB 1
SEDALIA        FOG       62  60  93 NE8       29.99R VSB 1/4
WHITEMAN AFB   CLOUDY    62  61  98 NE6       29.98S FOG
OSAGE BEACH    CLOUDY    63  61  94 E5        29.98R

$$
MOZ051-052-059>065-181200-
...EAST CENTRAL MISSOURI...

CITY           SKY/WX    TMP DP  RH WIND       PRES   REMARKS
ST LOUIS INTL  CLOUDY    62  56  80 E6        30.01S
SPIRIT OF STL  CLOUDY    60  58  92 CALM      30.00R
ST CHARLES     CLOUDY    60  56  86 NE6       30.01S

$$
MOZ072>076-082>087-097>100-106>115-181200-
...SOUTH CENTRAL AND SOUTHEAST MISSOURI...

CITY           SKY/WX    TMP DP  RH WIND       PRES   REMARKS
CAPE GIRARDEAU CLOUDY    60  59  96 CALM      29.98S FOG
FARMINGTON     CLOUDY    59  57  94 CALM      30.02R
POPLAR BLUFF   CLOUDY    59  56  89 N6        29.97R FOG
WEST PLAINS    FOG       61  59  93 E5        29.99R VSB 1/4

$$



USA.gov is the U.S. government's official web portal to all federal, state and local government web resources and services.